This is the latest recevied weather packets stored in our database for station/object KF4WSW-13. If no packets are shown the sender has not sent any weather packets the latest 10 day(s).
| Time | Temp. | Humidity | Pressure | Rain* | Wind** | Luminosity | Snow |
|---|---|---|---|---|---|---|---|
| 1777647366 | 27.78° C | 76% | 1011.7 hPa | 0 mm | - | 566 W/m² | - |
| 1777647065 | 27.78° C | 75% | 1011.5 hPa | 0 mm | - | 675 W/m² | - |
| 1777646761 | 27.78° C | 76% | 1011.3 hPa | 0 mm | - | 623 W/m² | - |
| 1777646461 | 27.78° C | 77% | 1011.4 hPa | 0 mm | - | 631 W/m² | - |
| 1777646158 | 27.78° C | 77% | 1011.6 hPa | 0 mm | - | 591 W/m² | - |
| 1777645855 | 27.78° C | 76% | 1011.4 hPa | 0 mm | - | 585 W/m² | - |
| 1777645552 | 28.33° C | 76% | 1011.3 hPa | 0 mm | - | 553 W/m² | - |
| 1777645248 | 27.78° C | 76% | 1011.5 hPa | 0 mm | - | 550 W/m² | - |
| 1777644944 | 27.78° C | 76% | 1011.2 hPa | 0 mm | - | 248 W/m² | - |
| 1777644642 | 27.78° C | 77% | 1011.2 hPa | 0 mm | - | 426 W/m² | - |
| 1777644338 | 27.78° C | 76% | 1011.3 hPa | 0 mm | - | 520 W/m² | - |
| 1777644034 | 27.78° C | 78% | 1011 hPa | 0 mm | - | 398 W/m² | - |
| 1777643731 | 27.78° C | 78% | 1011.3 hPa | 0 mm | - | 340 W/m² | - |
| 1777643428 | 27.78° C | 78% | 1011.2 hPa | 0 mm | - | 467 W/m² | - |
| 1777643125 | 27.22° C | 77% | 1011 hPa | 0 mm | - | 435 W/m² | - |
| 1777642821 | 27.78° C | 77% | 1010.9 hPa | 0 mm | - | 429 W/m² | - |
| 1777642519 | 27.22° C | 78% | 1010.9 hPa | 0 mm | - | 413 W/m² | - |
| 1777642215 | 27.22° C | 78% | 1011.1 hPa | 0 mm | - | 388 W/m² | - |
| 1777641912 | 27.22° C | 78% | 1010.9 hPa | 0 mm | - | 387 W/m² | - |
| 1777641607 | 27.78° C | 78% | 1010.9 hPa | 0 mm | - | 377 W/m² | - |
| 1777641303 | 27.22° C | 78% | 1011.1 hPa | 0 mm | - | 370 W/m² | - |
| 1777640999 | 26.67° C | 79% | 1011 hPa | 0 mm | - | 390 W/m² | - |
| 1777640694 | 26.67° C | 81% | 1010.8 hPa | 0 mm | - | 263 W/m² | - |
| 1777640391 | 26.67° C | 81% | 1010.9 hPa | 0 mm | - | 106 W/m² | - |
| 1777640088 | 26.11° C | 83% | 1010.9 hPa | 0 mm | - | 291 W/m² | - |
* Rain latest hour (hover to see other rain measurements)
** Current wind speed in m/s (hover to see current wind gust speed)